www.pogodaiklimat.ru

Погода и климат >> Архив погоды >> Россия >> Алтайский край >> Боровиха


ПОГОДА в Боровихе

  • Прогноз погоды в Боровихе
  • Монитор погоды в Боровихе

АРХИВ ПОГОДЫ в Боровихе

Время (UTC), дата Ветер
(напр.,м/с)
 
Видим.   Явления Облачность Т
(С)
Тd
(С)
f
(%)
Тe
(С)
Тes
(С)
Комфортность P
(гПа)
Po
(гПа)
Тmin
(С)
Tmax
(С)
R
(мм)
R24
(мм)
S
(см)
18 17.06 штиль 0 н/о н/о +6.8 +6.2 96 +6 +6 1011.4 994.1
21 17.06 штиль 0 н/о н/о +4.6 +4.2 97 +3 +3 1009.7 992.3
00 18.06 СЗ 1 н/о н/о +9.8 +8.7 93 +9 +9 1007.5 990.5 +3.8
03 18.06 СЗ 6 н/о н/о +19.4 +9.4 52 +20 +20 1004.8 988.4
06 18.06 СЗ 4 н/о н/о +18.3 +12.2 68 +18 +18 1004.6 988.2
09 18.06 СЗ 4 н/о н/о +16.8 +13.5 81 +16 +16 1003.5 987.1
12 18.06 СЗ 5 н/о н/о +18.5 +13.7 74 +19 +19 1002.3 985.9 +21.0
15 18.06 штиль 0 н/о н/о +16.9 +14.2 84 +17 +17 1002.8 986.3
18 18.06 СВ 1 н/о н/о +14.7 +13.7 94 +15 +15 1003.9 987.3
21 18.06 СВ 2 н/о н/о +12.7 +11.5 92 +12 +12 1005.8 989.0
00 19.06 СВ 2 н/о н/о +13.1 -28.2 4 +13 +13 1008.7 991.9 +12.0
03 19.06 В 3 н/о н/о +16.2 +9.0 62 +16 +16 1010.7 994.0
06 19.06 СВ 4 н/о н/о +18.7 +7.7 49 +19 +19 1011.7 995.2
09 19.06 В 3 н/о н/о +20.5 +6.4 40 +22 +22 комфорт 1011.6 995.1
12 19.06 В 1 н/о н/о +20.2 +8.0 45 +22 +22 комфорт 1012.0 995.6 +21.2
15 19.06 СЗ 2 н/о н/о +14.1 -9.3 19 +14 +14 1013.7 996.9
18 19.06 штиль 0 н/о н/о +8.9 +8.7 99 +8 +8 1014.0 996.9
21 19.06 ЮВ 1 н/о н/о +11.3 +10.7 96 +11 +11 1014.3 997.3
00 20.06 штиль 0 н/о н/о +11.1 +10.7 97 +10 +10 1015.0 998.0 +7.6
03 20.06 З 3 н/о н/о +18.3 +11.7 65 +19 +19 1014.6 998.0
06 20.06 ЮЗ 1 н/о н/о +21.4 +11.7 54 +23 +23 комфорт 1014.5 998.0
09 20.06 З 2 н/о н/о +24.0 +9.2 39 +25 +25 комфорт 1013.5 997.3
12 20.06 ЮВ 3 н/о н/о +17.0 +13.2 78 +17 +17 1014.6 997.9 +24.0
15 20.06 Ю 1 н/о н/о +15.1 +13.8 92 +16 +16 1015.8 999.0
21 20.06 штиль 0 н/о н/о +7.4 +7.2 99 +6 +6 1016.6 999.4
00 21.06 штиль 0 н/о н/о +10.5 +10.2 98 +10 +10 1017.1 1000.0 +6.6
03 21.06 Ю 2 н/о н/о +19.8 +12.2 62 +22 +22 комфорт 1016.1 999.6
06 21.06 ЮЗ 3 н/о н/о +23.1 +9.8 43 +25 +25 комфорт 1014.8 998.5
09 21.06 З 2 н/о н/о +24.8 +10.2 40 +26 +26 жарко 1013.0 996.7
12 21.06 З 2 н/о н/о +24.9 +9.2 37 +26 +26 жарко 1011.9 995.7 +25.3
15 21.06 ЮВ 1 н/о н/о +15.9 +11.7 76 +17 +17 1011.7 995.0
18 21.06 штиль 0 н/о н/о +10.2 +9.5 95 +9 +9 1011.3 994.2
21 21.06 штиль 0 н/о н/о +8.6 +8.2 97 +8 +8 1010.1 993.0
00 22.06 штиль 0 н/о н/о +12.0 +10.5 91 +11 +11 1009.8 992.9 +7.4
03 22.06 СЗ 1 н/о н/о +20.7 +12.7 60 +24 +24 комфорт 1008.6 992.3
12 22.06 ЮВ 2 н/о н/о +19.8 +16.0 79 +23 +23 комфорт 1006.9 990.6
15 22.06 СЗ 2
{14}
н/о н/о +15.4 +14.5 94 +15 +15 1007.7 991.1
18 22.06 СВ 1
{11}
н/о н/о +13.4 +13.0 97 +13 +13 1007.8 991.1
21 22.06 штиль 0 н/о н/о +12.2 +12.0 99 +12 +12 1007.6 990.8
00 23.06 В 1 н/о н/о +12.8 +12.5 98 +13 +13 1008.2 991.4 +10.9
03 23.06 В 4 н/о н/о +14.9 +13.7 93 +14 +14 1009.0 992.3
06 23.06 СВ 1 н/о н/о +14.6 +13.2 91 +15 +15 1009.8 993.1
09 23.06 В 4 н/о н/о +14.9 +12.2 84 +14 +14 1010.6 993.9
12 23.06 В 3 н/о н/о +17.6 +6.5 48 +18 +18 1010.8 994.2 +17.6
15 23.06 СВ 1 н/о н/о +12.4 +6.7 68 +13 +13 1012.6 995.7
18 23.06 штиль 0 н/о н/о +8.1 +7.5 96 +7 +7 1013.2 996.0
21 23.06 СЗ 1 н/о н/о +7.0 +6.4 96 +6 +6 1013.0 995.7
00 24.06 СЗ 2 н/о н/о +9.4 +9.0 97 +8 +8 1013.0 995.9 +5.8
03 24.06 С 3 н/о н/о +11.1 +8.5 84 +9 +9 1013.2 996.2

 

Местоположение метеостанции Боровиха (Алтайский край, Россия): широта 53.52 долгота 83.83 высота над уровнем моря 142 м.

В архиве по умолчанию представлена погода в Боровихе за последнюю неделю. Архивные данные за месяц целиком и за предыдущие месяцы, начиная с января 2011 года, Вы можете получить, выбрав интересующий диапазон дат из раскрывающегося списка и нажав кнопку "Ввод!".


*Определитесь, кто Вы:
робот инопланетянин человек

Внимание! Время в таблицах - всемирное. Для получения местного времени необходимо прибавить поправку, которая равна 7 ч.

Смотрите также архив погоды в соседних городах и на ближайших метеорологических станциях:

Погода в Барнауле АМС (Алтайский край, Россия) (22 км)
Погода в Барнауле (Алтайский край, Россия) (23 км)
Погода в Тальменке (Алтайский край, Россия) (37 км)
Погода в Заринске (Алтайский край, Россия) (77 км)
Погода в Шелаболихе (Алтайский край, Россия) (82 км)
Погода в Троицком (Алтайский край, Россия) (83 км)
Погода в Посевной (Новосибирская область, Россия) (93 км)
Погода в Маслянино (Новосибирская область, Россия) (94 км)
Погода в Сузуне (Новосибирская область, Россия) (103 км)
Погода в Ребрихе (Алтайский край, Россия) (111 км)

Пояснения к столбцам:

Ветер - указаны скорость ветра в м/с - средняя за 10 мин, порывы в срок и между сроками (в фигурных скобках) и направление, откуда дует ветер: С - северный, СВ - северо-восточный, В - восточный, ЮВ - юго-восточный, Ю - южный, ЮЗ - юго-западный, З - западный, СЗ - северо-западный.
Видимость - горизонтальная дальность видимости в метрах или километрах. При видимости от 1 до 10 км при отсутствии осадков обычно наблюдается дымка, при ухудшении видимости до 1 км и менее - туман. В сухую погоду видимость может ухудшаться дымом, пылью или мглою.
Явления - указаны атмосферные явления, наблюдавшиеся в срок или в последний час перед сроком; фигурными скобками обозначены явления, наблюдавшиеся между сроками (за 1-3 часа до срока); квадратными скобками обозначены град или гололедные отложения с указанием их диаметра в мм.
Облачность - указаны через наклонную черту общая и нижняя облачность в баллах и высота нижней границы облаков в метрах; квадратными скобками обозначены формы облаков: Ci - перистые, Cs - перисто-слоистые, Cc - перисто-кучевые, Ac - высококучевые, As - высокослоистые, Sc - слоисто-кучевые, Ns - слоисто-дождевые, Cu - кучевые, Cb - кучево-дождевые. Подробнее классификацию облаков см. в Атласе облаков (PDF).
T - Температура воздуха - температура, измеренная на высоте 2 м над землей.
Td - Температура точки росы - температура, при понижении до которой содержащийся в воздухе водяной пар достигнет насыщения.
f - Относительная влажность воздуха - влажноcть воздуха, измеренная на высоте 2 м над землей.
Te - Эффективная температура - температура, которую ощущает одетый по сезону человек в тени. Характеристика душности погоды. При расчете учитывается влияние влажности воздуха и скорости ветра на теплоощущения человека.
Tes - Эффективная температура на солнце - температура, которую ощущает человек, с поправкой на солнечный нагрев. Характеристика знойности погоды. Зависит от высоты солнца над горизонтом, облачности и скорости ветра. Ночью, в пасмурную погоду, а также при ветре 12 м/с и более поправка равна нулю.
P - Атмосферное давление - приведенное к уровню моря атмосферное давление.
Po - Атмосферное давление - измеренное на уровне метеостанции атмосферное давление.
Tmin - Минимальная температура - минимум температуры воздуха на высоте 2 м над землей.
Tmax - Максимальная температура - максимум температуры воздуха на высоте 2 м над землей.
R - Количество осадков - Количество выпавших осадков за период времени, мм. При наведении курсора мыши на число - период времени, за который выпало указанное количество осадков.
R24 - Количество осадков - Количество выпавших осадков за 24 часа, мм.
S - Снежный покров - Высота снежного покрова, см. При наведении курсора мыши на число - состояние снежного покрова и степень покрытия местности в баллах.